Location: Cieszkowy
(50.3290°N, 20.5336°E)
Time: 00:31:23
(UTC+00:00)

Cosmos 990 Rocket - Pass Details

Date: 15 June 2024
Orbit: 744 x 766 km, 74.0° (Epoch: 18 July)

Event Time Altitude Azimuth Distance (km) Brightness Sun altitude
Exits shadow 00:08:07 18° 226° (SW) 1,798 5.4 -13.7°
Maximum altitude 00:11:52 54° 299° (WNW) 910 4.4 -13.5°
Drops below altitude 10° 00:16:54 10° 17° (NNE) 2,272 7.9 -13.2°
Sets 00:19:20 0° 22° (NNE) 3,201 9.3 -13.0°
